• In Belarus
  • List of Countries
  • For 7 days
  • Water Temperature
  • Satellite Maps
  • Weather Map
  • Weather Widgets
  • user-avatar
    Login

    Hourly Weather Dangriga

    Today, 18 December, Monday

    Time Temperature Precipitation Wind Pressure Humidity
    00:00 +25°C° 0.1 mm 4 mps 762 mmHg 98%
    01:00 +25°C° 0.2 mm 4 mps 762 mmHg 98%
    02:00 +25°C° 0.2 mm 4 mps 761 mmHg 98%
    03:00 +25°C° 0.2 mm 4 mps 761 mmHg 98%
    04:00 +25°C° 0.3 mm 4 mps 761 mmHg 98%
    05:00 +25°C° 0.3 mm 4 mps 762 mmHg 98%
    06:00 +25°C° 0.3 mm 4 mps 762 mmHg 98%
    07:00 +26°C° 0.5 mm 4 mps 762 mmHg 97%
    08:00 +26°C° 0.5 mm 5 mps 763 mmHg 95%
    09:00 +27°C° 0.5 mm 5 mps 763 mmHg 94%
    10:00 +28°C° 0.5 mm 5 mps 763 mmHg 93%
    11:00 +28°C° 0.5 mm 5 mps 763 mmHg 91%
    12:00 +28°C° 0.5 mm 5 mps 763 mmHg 89%
    13:00 +28°C° 0.4 mm 5 mps 762 mmHg 90%
    14:00 +28°C° 0.4 mm 5 mps 762 mmHg 91%
    15:00 +27°C° 0.4 mm 4 mps 761 mmHg 92%
    16:00 +27°C° 0.2 mm 5 mps 761 mmHg 93%
    17:00 +26°C° 0.2 mm 5 mps 761 mmHg 94%
    18:00 +26°C° 0.2 mm 5 mps 761 mmHg 95%
    19:00 +26°C° 0.3 mm 5 mps 762 mmHg 96%
    20:00 +26°C° 0.3 mm 5 mps 762 mmHg 97%
    21:00 +25°C° 0.3 mm 5 mps 763 mmHg 98%
    22:00 +25°C° 0.3 mm 5 mps 763 mmHg 98%
    23:00 +25°C° 0.3 mm 5 mps 763 mmHg 98%

    Tomorrow, 19 December, Tuesday

    Time Temperature Precipitation Wind Pressure Humidity
    00:00 +25°C° 0.3 mm 5 mps 763 mmHg 98%
    01:00 +25°C° 0.2 mm 5 mps 763 mmHg 98%
    02:00 +25°C° 0.2 mm 4 mps 762 mmHg 98%
    03:00 +25°C° 0.2 mm 4 mps 762 mmHg 98%
    04:00 +25°C° 0.1 mm 4 mps 762 mmHg 98%
    05:00 +25°C° 0.1 mm 4 mps 762 mmHg 98%
    06:00 +24°C° 0.1 mm 3 mps 762 mmHg 98%
    07:00 +26°C° 0.2 mm 4 mps 763 mmHg 96%
    08:00 +27°C° 0.2 mm 4 mps 763 mmHg 94%
    09:00 +28°C° 0.2 mm 4 mps 764 mmHg 92%
    10:00 +28°C° 0.7 mm 5 mps 763 mmHg 92%
    11:00 +28°C° 0.7 mm 5 mps 763 mmHg 92%
    12:00 +28°C° 0.7 mm 5 mps 763 mmHg 92%
    13:00 +28°C° 0.6 mm 5 mps 762 mmHg 91%
    14:00 +28°C° 0.6 mm 4 mps 761 mmHg 90%
    15:00 +28°C° 0.6 mm 4 mps 761 mmHg 90%
    16:00 +27°C° 0.3 mm 4 mps 761 mmHg 92%
    17:00 +26°C° 0.3 mm 4 mps 761 mmHg 94%
    18:00 +25°C° 0.3 mm 4 mps 761 mmHg 97%
    19:00 +25°C° 0.2 mm 4 mps 761 mmHg 97%
    20:00 +25°C° 0.2 mm 4 mps 762 mmHg 97%
    21:00 +25°C° 0.2 mm 4 mps 762 mmHg 98%
    22:00 +25°C° 0.2 mm 4 mps 762 mmHg 98%
    23:00 +25°C° 0.2 mm 4 mps 762 mmHg 98%

    Day after tomorrow, 20 December, Wednesday

    Time Temperature Precipitation Wind Pressure Humidity
    00:00 +25°C° 0.2 mm 4 mps 762 mmHg 98%
    01:00 +25°C° 0.2 mm 4 mps 762 mmHg 98%
    02:00 +25°C° 0.2 mm 4 mps 761 mmHg 98%
    03:00 +25°C° 0.2 mm 3 mps 761 mmHg 98%
    04:00 +25°C° 0.1 mm 3 mps 761 mmHg 98%
    05:00 +25°C° 0.1 mm 3 mps 761 mmHg 98%
    06:00 +25°C° 0.1 mm 3 mps 761 mmHg 98%
    07:00 +26°C° 0.1 mm 3 mps 762 mmHg 95%
    08:00 +27°C° 0.1 mm 3 mps 762 mmHg 91%
    09:00 +28°C° 0.1 mm 3 mps 763 mmHg 87%
    10:00 +30°C° 0.1 mm 3 mps 762 mmHg 77%
    11:00 +31°C° 0.1 mm 3 mps 762 mmHg 68%
    12:00 +33°C° 0.1 mm 3 mps 762 mmHg 58%
    13:00 +33°C° 0 mm 3 mps 761 mmHg 59%
    14:00 +33°C° 0 mm 3 mps 760 mmHg 59%
    15:00 +33°C° 0 mm 3 mps 760 mmHg 59%
    16:00 +30°C° 0 mm 3 mps 760 mmHg 70%
    17:00 +28°C° 0 mm 3 mps 760 mmHg 80%
    18:00 +26°C° 0 mm 3 mps 760 mmHg 90%
    19:00 +26°C° 0.2 mm 3 mps 760 mmHg 92%
    20:00 +26°C° 0.2 mm 3 mps 761 mmHg 94%
    21:00 +25°C° 0.2 mm 3 mps 761 mmHg 96%
    22:00 +25°C° 0.2 mm 3 mps 761 mmHg 97%
    23:00 +25°C° 0.2 mm 3 mps 761 mmHg 97%

    21 December, Thursday

    Time Temperature Precipitation Wind Pressure Humidity
    00:00 +25°C° 0.2 mm 3 mps 760 mmHg 97%
    01:00 +25°C° 0.1 mm 3 mps 760 mmHg 97%
    02:00 +25°C° 0.1 mm 3 mps 760 mmHg 97%
    03:00 +25°C° 0.1 mm 3 mps 759 mmHg 97%
    04:00 +25°C° 0.2 mm 3 mps 760 mmHg 98%
    05:00 +25°C° 0.2 mm 3 mps 760 mmHg 98%
    06:00 +25°C° 0.2 mm 3 mps 760 mmHg 98%
    07:00 +26°C° 0.2 mm 4 mps 761 mmHg 96%
    08:00 +27°C° 0.2 mm 4 mps 761 mmHg 94%
    09:00 +28°C° 0.2 mm 4 mps 762 mmHg 92%
    10:00 +28°C° 0.2 mm 4 mps 761 mmHg 88%
    11:00 +29°C° 0.2 mm 4 mps 761 mmHg 84%
    12:00 +30°C° 0.2 mm 4 mps 760 mmHg 80%
    13:00 +30°C° 0 mm 4 mps 760 mmHg 74%
    14:00 +32°C° 0 mm 4 mps 759 mmHg 68%
    15:00 +31°C° 0 mm 3 mps 759 mmHg 62%
    16:00 +30°C° 0 mm 3 mps 759 mmHg 72%
    17:00 +28°C° 0 mm 4 mps 759 mmHg 82%
    18:00 +26°C° 0 mm 4 mps 760 mmHg 92%
    19:00 +26°C° 0 mm 4 mps 760 mmHg 94%
    20:00 +26°C° 0 mm 4 mps 760 mmHg 95%
    21:00 +25°C° 0 mm 4 mps 761 mmHg 97%
    22:00 +25°C° 0 mm 4 mps 761 mmHg 97%
    23:00 +25°C° 0 mm 4 mps 760 mmHg 98%

    22 December, Friday

    Time Temperature Precipitation Wind Pressure Humidity
    00:00 +25°C° 0 mm 4 mps 760 mmHg 98%
    01:00 +25°C° 0.2 mm 4 mps 760 mmHg 98%
    02:00 +25°C° 0.2 mm 4 mps 760 mmHg 98%
    03:00 +25°C° 0.2 mm 5 mps 759 mmHg 98%
    04:00 +25°C° 0.1 mm 5 mps 759 mmHg 98%
    05:00 +25°C° 0.1 mm 5 mps 760 mmHg 98%
    06:00 +25°C° 0.1 mm 5 mps 760 mmHg 98%
    07:00 +26°C° 0.1 mm 5 mps 760 mmHg 94%
    08:00 +27°C° 0.1 mm 5 mps 761 mmHg 90%
    09:00 +28°C° 0.1 mm 5 mps 762 mmHg 87%
    10:00 +29°C° 0.1 mm 5 mps 761 mmHg 80%
    11:00 +30°C° 0.1 mm 5 mps 761 mmHg 73%
    12:00 +32°C° 0.1 mm 5 mps 760 mmHg 65%
    13:00 +32°C° 0.3 mm 5 mps 760 mmHg 67%
    14:00 +32°C° 0.3 mm 5 mps 759 mmHg 69%
    15:00 +30°C° 0.3 mm 5 mps 759 mmHg 71%
    16:00 +29°C° 0.2 mm 5 mps 759 mmHg 78%
    17:00 +27°C° 0.2 mm 4 mps 760 mmHg 86%
    18:00 +26°C° 0.2 mm 4 mps 760 mmHg 93%
    19:00 +26°C° 0.3 mm 4 mps 760 mmHg 94%
    20:00 +26°C° 0.3 mm 4 mps 761 mmHg 94%
    21:00 +26°C° 0.3 mm 4 mps 761 mmHg 95%
    22:00 +26°C° 0.7 mm 4 mps 761 mmHg 96%
    23:00 +26°C° 0.7 mm 4 mps 761 mmHg 96%

    23 December, Saturday

    Time Temperature Precipitation Wind Pressure Humidity
    00:00 +25°C° 0.7 mm 4 mps 760 mmHg 96%
    01:00 +25°C° 0.4 mm 4 mps 760 mmHg 96%
    02:00 +25°C° 0.4 mm 4 mps 760 mmHg 97%
    03:00 +25°C° 0.4 mm 4 mps 760 mmHg 97%
    04:00 +25°C° 0.7 mm 4 mps 760 mmHg 97%
    05:00 +25°C° 0.7 mm 4 mps 761 mmHg 97%
    06:00 +25°C° 0.7 mm 4 mps 761 mmHg 98%
    07:00 +27°C° 0.8 mm 4 mps 762 mmHg 92%
    08:00 +28°C° 0.8 mm 4 mps 762 mmHg 86%
    09:00 +29°C° 0.8 mm 4 mps 763 mmHg 80%
    10:00 +30°C° 0.1 mm 4 mps 762 mmHg 74%
    11:00 +32°C° 0.1 mm 4 mps 762 mmHg 68%
    12:00 +33°C° 0.1 mm 4 mps 761 mmHg 62%
    13:00 +33°C° 0 mm 4 mps 761 mmHg 63%
    14:00 +33°C° 0 mm 4 mps 760 mmHg 64%
    15:00 +32°C° 0 mm 4 mps 760 mmHg 65%
    16:00 +30°C° 0.2 mm 4 mps 760 mmHg 74%
    17:00 +28°C° 0.2 mm 4 mps 760 mmHg 83%
    18:00 +26°C° 0.2 mm 4 mps 761 mmHg 92%
    19:00 +26°C° 0.5 mm 4 mps 761 mmHg 93%
    20:00 +26°C° 0.5 mm 4 mps 762 mmHg 94%
    21:00 +26°C° 0.5 mm 5 mps 762 mmHg 95%
    22:00 +26°C° 1.1 mm 5 mps 762 mmHg 95%
    23:00 +25°C° 1.1 mm 5 mps 762 mmHg 95%
    Show more

    XHprof extension not loaded